Weather History for EGJJ - December, 2012

Change the Weather History Date:

Wednesday, December 5, 2012

  Actual Average Record
Temperature  
Mean Temperature 42 °F -  
Max Temperature 46 °F 46 °F 57 °F (2001)
Min Temperature 39 °F 40 °F 35 °F (1997)
Degree Days  
Heating Degree Days 22    
Moisture  
Dew Point 35 °F    
Average Humidity 72    
Maximum Humidity 87    
Minimum Humidity 51    
Precipitation  
Precipitation 0.00 in - - ()
Sea Level Pressure  
Sea Level Pressure 29.80 in    
Wind  
Wind Speed 16 mph ()    
Max Wind Speed 26 mph    
Max Gust Speed 38 mph    
Visibility 6.9 miles    
Events Rain , Hail    
Averages and records for this station are not official NWS values.
T = Trace of Precipitation, MM = Missing Value Source: Averaged Metar Reports

Daily Weather History Graph

Daily Weather History Graph

Search for Another Location

Airport or City:

Trip Planner

Search our weather history database for the weather conditions in past years. The results will help you decide how hot, cold, wet, or windy it might be!

Date:

Astronomy

Dec. 05, 2012 Rise Set
Actual Time 7:47 AM GMT 4:11 PM GMT
Civil Twilight 7:10 AM GMT 4:48 PM GMT
Nautical Twilight 6:30 AM GMT 5:28 PM GMT
Astronomical Twilight 5:51 AM GMT 6:07 PM GMT
Moon 11:11 PM GMT (12/5) 11:40 AM GMT (12/5)
Length of Visible Light 9h 37m
Length of Day
8h 23m
Waning Gibbous, 62% of the Moon is Illuminated
Dec 5
Waning Gibbous
Dec 6
Last Quarter
Dec 13
New
Dec 20
First Quarter
Dec 28
Full

Hourly Weather History & Observations

Time (GMT) Temp. Windchill Dew Point Humidity Pressure Visibility Wind Dir Wind Speed Gust Speed Precip Events Conditions
12:00 AM 46 °F - 39 °F 67% 29.67 in 5 mi West 18.4 mph - -   Partly Cloudy
3:00 AM 44 °F - 40 °F 80% 29.62 in 12 mi WNW 19.6 mph - - Hail Light Hail Showers
3:50 AM 44.6 °F 37.8 °F 39.2 °F 81% 29.59 in 6.2 mi NW 15.0 mph - N/A   Partly Cloudy
4:20 AM 44.6 °F 36.9 °F 39.2 °F 81% 29.59 in 6.2 mi NW 18.4 mph - N/A   Scattered Clouds
4:50 AM 44.6 °F 36.1 °F 39.2 °F 81% 29.62 in 6.2 mi NW 21.9 mph - N/A   Scattered Clouds
5:20 AM 44.6 °F 35.7 °F 39.2 °F 81% 29.62 in 6.2 mi NW 24.2 mph - N/A   Scattered Clouds
5:50 AM 44.6 °F 35.5 °F 39.2 °F 81% 29.62 in 6.2 mi NNW 25.3 mph - N/A   Scattered Clouds
6:00 AM 45 °F - 38 °F 70% 29.65 in 25 mi NW 21.9 mph - - Rain Light Rain Showers
6:20 AM 44.6 °F 35.3 °F 39.2 °F 81% 29.65 in 6.2 mi NW 26.5 mph - N/A   Mostly Cloudy
6:50 AM 44.6 °F 36.1 °F 39.2 °F 81% 29.65 in 6.2 mi NNW 21.9 mph - N/A   Mostly Cloudy
7:20 AM 44.6 °F 37.4 °F 39.2 °F 81% 29.68 in 6.2 mi NNW 16.1 mph - N/A Rain Light Rain Showers
7:50 AM 44.6 °F 36.1 °F 39.2 °F 81% 29.68 in 6.2 mi NW 21.9 mph 38.0 mph N/A Rain Light Rain Showers
8:20 AM 42.8 °F 34.3 °F 39.2 °F 87% 29.71 in 6.2 mi NNW 19.6 mph - N/A Rain Rain Showers
8:50 AM 42.8 °F 34.5 °F 39.2 °F 87% 29.71 in 6.2 mi NW 18.4 mph - N/A   Mostly Cloudy
9:00 AM 43 °F - 39 °F 79% 29.75 in 16 mi NW 17.3 mph - - Hail Light Hail Showers
9:20 AM 44.6 °F 38.4 °F 37.4 °F 76% 29.74 in 6.2 mi NNW 12.7 mph - N/A   Scattered Clouds
9:50 AM 44.6 °F 37.8 °F 39.2 °F 81% 29.74 in 6.2 mi North 15.0 mph 28.8 mph N/A   Scattered Clouds
10:20 AM 44.6 °F 37.2 °F 37.4 °F 76% 29.77 in 6.2 mi North 17.3 mph - N/A   Scattered Clouds
10:50 AM 46.4 °F 38.5 °F 37.4 °F 71% 29.77 in 6.2 mi NNW 21.9 mph - N/A   Scattered Clouds
11:20 AM 44.6 °F 38.4 °F 37.4 °F 76% 29.80 in 6.2 mi NNW 12.7 mph 24.2 mph N/A   Mostly Cloudy
11:50 AM 44.6 °F 36.9 °F 37.4 °F 76% 29.80 in 6.2 mi North 18.4 mph - N/A Rain Light Rain Showers
12:00 PM 46 °F - 38 °F 65% 29.81 in 16 mi North 21.9 mph - - Rain Light Rain Showers
12:20 PM 44.6 °F 36.6 °F 37.4 °F 76% 29.80 in 6.2 mi North 19.6 mph - N/A Rain Light Rain Showers
12:50 PM 42.8 °F 34.0 °F 37.4 °F 81% 29.80 in 6.2 mi North 20.7 mph - N/A   Scattered Clouds
2:50 PM 42.8 °F 34.5 °F 33.8 °F 70% 29.86 in 6.2 mi NNW 18.4 mph - N/A   Scattered Clouds
3:00 PM 43 °F - 33 °F 58% 29.89 in 28 mi North 16.1 mph - -   Partly Cloudy
3:20 PM 41.0 °F 33.5 °F 32.0 °F 70% 29.89 in 6.2 mi North 13.8 mph - N/A   Partly Cloudy
3:50 PM 42.8 °F 34.8 °F 30.2 °F 61% 29.89 in 6.2 mi North 17.3 mph - N/A   Partly Cloudy
4:20 PM 41.0 °F 33.5 °F 30.2 °F 65% 29.92 in 6.2 mi NNW 13.8 mph - N/A   Partly Cloudy
4:50 PM 41.0 °F 33.5 °F 30.2 °F 65% 29.92 in 6.2 mi North 13.8 mph - N/A   Partly Cloudy
5:20 PM 41.0 °F 32.8 °F 30.2 °F 65% 29.95 in 6.2 mi North 16.1 mph - N/A   Partly Cloudy
5:50 PM 41.0 °F 35.2 °F 30.2 °F 65% 29.95 in 6.2 mi NNW 9.2 mph - N/A   Partly Cloudy
6:00 PM 41 °F - 30 °F 54% 29.97 in 37 mi NNW 13.8 mph - -   Partly Cloudy
6:20 PM 41.0 °F 36.4 °F 30.2 °F 65% 29.95 in 6.2 mi NNW 6.9 mph - N/A   Partly Cloudy
6:50 PM 42.8 °F 35.4 °F 30.2 °F 61% 29.98 in 6.2 mi NNW 15.0 mph - N/A   Partly Cloudy
7:20 PM 42.8 °F 35.8 °F 30.2 °F 61% 29.98 in 6.2 mi NNW 13.8 mph - N/A   Partly Cloudy
7:50 PM 42.8 °F 37.0 °F 30.2 °F 61% 29.98 in 6.2 mi NNW 10.4 mph - N/A   Partly Cloudy
8:20 PM 42.8 °F 36.6 °F 30.2 °F 61% 30.01 in 6.2 mi NNW 11.5 mph - N/A   Partly Cloudy
8:50 PM 42.8 °F 36.6 °F 30.2 °F 61% 30.01 in 6.2 mi North 11.5 mph - N/A   Partly Cloudy
9:00 PM 42 °F - 30 °F 51% 30.03 in 37 mi North 16.1 mph - -   Scattered Clouds